Regional Weather Roundup
Issued by NWS State College, PA

Home | Current Version | Previous Version | Graphics & Text | Print | Product List | Glossary On
Versions: 1 2 3 4 5 6 7 8 9 10 11 12 13 14 15 16 17 18 19 20 21 22 23 24 25 26 27 28 29 30 31 32 33 34 35 36 37 38 39 40 41 42 43 44 45 46 47 48 49 50
705
ASUS41 KCTP 290110
RWRCTP

REGIONAL WEATHER ROUNDUP
NATIONAL WEATHER SERVICE STATE COLLEGE PA
900 PM EDT TUE MAR 28 2017

Note: "fair" indicates few or no clouds below 12,000 feet with no
significant weather and/or obstructions to visibility.

* = STATION THAT DOES NOT REPORT PRECIPITATION /E.G. RAIN...SNOW...ETC/
    THUNDER OR FOG.

PAZ002>004-007>009-013>016-020>023-029>032-290200-
WESTERN PENNSYLVANIA

CITY           SKY/WX    TMP DP  RH WIND       PRES   REMARKS
ERIE           CLOUDY    41  40  96 W5        30.12R FOG
MEADVILLE      CLOUDY    43  40  89 NW5       30.09R FOG
FRANKLIN*      CLOUDY    45  39  81 N6        30.09R
NEW CASTLE     CLOUDY    45  42  89 NW8       30.11R
BEAVER COUNTY  CLOUDY    46  41  81 N7        30.08R
BUTLER*        CLOUDY    48  41  76 NW9       30.08R
PITTSBURGH INT CLOUDY    49  44  83 N16       30.07R
PITTSBURGH     CLOUDY    50  43  77 NW10G23   30.04R
INDIANA*       CLOUDY    54  48  82 N10       30.04R
LATROBE        CLOUDY    54  50  87 NW6       30.03R
WASHINGTON CO* CLOUDY    52  45  76 N9        30.08R
$$

PAZ004>006-010>012-017>019-024>028-033>037-041-042-045-046-049>053-290200-
CENTRAL PENNSYLVANIA

CITY           SKY/WX    TMP DP  RH WIND       PRES   REMARKS
BRADFORD       CLOUDY    43  43 100 NW9       30.03R FOG
DUBOIS         CLOUDY    50  43  77 N10       30.00R
CLEARFIELD       N/A    N/A N/A N/A MISG      29.99R
JOHNSTOWN      CLOUDY    51  50  96 NW12      29.99R
ALTOONA        CLOUDY    57  51  80 NW9       29.98R
STATE COLLEGE  DRIZZLE   54  54 100 CALM      29.97R FOG
WILLIAMSPORT   CLOUDY    55  48  77 VRB6      29.96R
SELINSGROVE    CLOUDY    56  53  90 N12       29.96R
FT INDIANTOWN  CLOUDY    53  53  99 N9        29.92R
CAPITAL CITY   CLOUDY    58  53  84 NW7       29.93R
HARRISBURG     CLOUDY    54  54 100 N6        29.92R FOG
YORK           CLOUDY    52  52 100 CALM      29.92R FOG
$$

PAZ038>040-043-044-047-048-054-055-060>062-067>071-290200-
EASTERN PENNSYLVANIA

CITY           SKY/WX    TMP DP  RH WIND       PRES   REMARKS
SCRANTON       CLOUDY    51  50  96 N6        29.95R FOG
MOUNT POCONO   CLOUDY    45  45 100 NW12      29.91R
ALLENTOWN      CLOUDY    50  46  86 E5        29.92R
QUAKERTOWN*    CLOUDY    48  48 100 CALM      29.93R
READING        CLOUDY    50  50 100 CALM      29.91R
LANCASTER      CLOUDY    52  52 100 CALM      29.91R
COATESVILLE    LGT RAIN  50  50 100 CALM      29.93R
POTTSTOWN      LGT RAIN  49  48  97 CALM      29.94R
BLUE BELL      CLOUDY    45  45 100 CALM      29.91R
DOYLESTOWN     CLOUDY    46  46 100 CALM      29.91R
WILLOW GROVE   NOT AVBL
NORTH PHILA    CLOUDY    48  47  96 NE6       29.93R
PHILADELPHIA   CLOUDY    49  47  93 N7        29.92R
$$




USA.gov is the U.S. government's official web portal to all federal, state and local government web resources and services.